Time,TemperatureF,DewpointF,PressureIn,WindDirection,WindDirectionDegrees,WindSpeedMPH,WindSpeedGustMPH,Humidity,HourlyPrecipIn,Conditions,Clouds,dailyrainin,SolarRadiationWatts/m^2,SoftwareType,DateUTC
2013-06-17 00:12:00,54.2,47.0,30.05,SSW,213,0.0,1.0,78,0.00,,,0.00,0,weatherlink.com 1.10,2013-06-17 07:12:00,
2013-06-17 00:27:00,54.1,48.0,30.05,SSW,213,0.0,0.0,79,0.00,,,0.00,0,weatherlink.com 1.10,2013-06-17 07:27:00,
2013-06-17 00:42:00,53.3,47.0,30.05,SSW,213,0.0,0.0,79,0.00,,,0.00,0,weatherlink.com 1.10,2013-06-17 07:42:00,
2013-06-17 00:57:00,52.1,47.0,30.05,SSW,213,0.0,0.0,82,0.00,,,0.00,0,weatherlink.com 1.10,2013-06-17 07:57:00,
2013-06-17 01:12:00,50.9,47.0,30.05,SSW,213,0.0,0.0,85,0.00,,,0.00,0,weatherlink.com 1.10,2013-06-17 08:12:00,
2013-06-17 01:27:00,50.2,46.0,30.05,SSW,213,0.0,0.0,86,0.00,,,0.00,0,weatherlink.com 1.10,2013-06-17 08:27:00,
2013-06-17 01:42:00,49.8,46.0,30.05,SSW,213,0.0,0.0,88,0.00,,,0.00,0,weatherlink.com 1.10,2013-06-17 08:42:00,
2013-06-17 01:57:00,49.5,46.0,30.05,SSW,213,0.0,0.0,89,0.00,,,0.00,0,weatherlink.com 1.10,2013-06-17 08:57:00,
2013-06-17 02:12:00,48.9,46.0,30.05,SSW,213,0.0,0.0,89,0.00,,,0.00,0,weatherlink.com 1.10,2013-06-17 09:12:00,
2013-06-17 02:27:00,48.4,46.0,30.05,SSW,213,0.0,0.0,90,0.00,,,0.00,0,weatherlink.com 1.10,2013-06-17 09:27:00,
2013-06-17 02:42:00,48.1,45.0,30.05,SSW,213,0.0,0.0,90,0.00,,,0.00,0,weatherlink.com 1.10,2013-06-17 09:42:00,
2013-06-17 02:57:00,47.9,46.0,30.05,SSW,213,0.0,0.0,91,0.00,,,0.00,0,weatherlink.com 1.10,2013-06-17 09:57:00,
2013-06-17 03:12:00,47.4,45.0,30.05,SSW,213,0.0,0.0,91,0.00,,,0.00,0,weatherlink.com 1.10,2013-06-17 10:12:00,
2013-06-17 03:28:00,47.4,45.0,30.05,SSW,213,0.0,0.0,91,0.00,,,0.00,0,weatherlink.com 1.10,2013-06-17 10:28:00,
2013-06-17 03:43:00,46.8,45.0,30.05,SSW,213,0.0,0.0,92,0.00,,,0.00,0,weatherlink.com 1.10,2013-06-17 10:43:00,
2013-06-17 03:58:00,46.6,44.0,30.05,SSW,213,0.0,0.0,92,0.00,,,0.00,0,weatherlink.com 1.10,2013-06-17 10:58:00,
2013-06-17 04:13:00,46.2,44.0,30.05,SSW,213,0.0,0.0,92,0.00,,,0.00,0,weatherlink.com 1.10,2013-06-17 11:13:00,
2013-06-17 04:28:00,45.9,44.0,30.05,SSW,213,0.0,0.0,92,0.00,,,0.00,0,weatherlink.com 1.10,2013-06-17 11:28:00,
2013-06-17 04:43:00,45.8,44.0,30.05,SSW,213,0.0,0.0,92,0.00,,,0.00,0,weatherlink.com 1.10,2013-06-17 11:43:00,
2013-06-17 04:58:00,45.6,44.0,30.05,SSW,213,0.0,0.0,92,0.00,,,0.00,0,weatherlink.com 1.10,2013-06-17 11:58:00,
2013-06-17 05:13:00,45.3,43.0,30.05,SSW,213,0.0,0.0,93,0.00,,,0.00,0,weatherlink.com 1.10,2013-06-17 12:13:00,
2013-06-17 05:28:00,44.9,43.0,30.05,SSW,213,0.0,0.0,93,0.00,,,0.00,0,weatherlink.com 1.10,2013-06-17 12:28:00,
2013-06-17 05:43:00,44.4,43.0,30.05,WNW,294,0.0,0.0,93,0.00,,,0.00,0,weatherlink.com 1.10,2013-06-17 12:43:00,
2013-06-17 05:58:00,44.3,42.0,30.05,WNW,294,0.0,0.0,93,0.00,,,0.00,7,weatherlink.com 1.10,2013-06-17 12:58:00,
2013-06-17 06:13:00,44.5,43.0,30.05,WNW,294,0.0,0.0,93,0.00,,,0.00,14,weatherlink.com 1.10,2013-06-17 13:13:00,
2013-06-17 06:28:00,44.9,43.0,30.06,WNW,294,0.0,0.0,93,0.00,,,0.00,40,weatherlink.com 1.10,2013-06-17 13:28:00,
2013-06-17 06:43:00,45.5,44.0,30.06,WNW,294,0.0,0.0,94,0.00,,,0.00,23,weatherlink.com 1.10,2013-06-17 13:43:00,
2013-06-17 06:58:00,46.2,45.0,30.06,WNW,294,0.0,0.0,94,0.00,,,0.00,25,weatherlink.com 1.10,2013-06-17 13:58:00,
2013-06-17 07:13:00,47.0,45.0,30.07,WNW,294,0.0,0.0,94,0.00,,,0.00,28,weatherlink.com 1.10,2013-06-17 14:13:00,
2013-06-17 07:28:00,48.9,47.0,30.07,WNW,294,0.0,0.0,94,0.00,,,0.00,178,weatherlink.com 1.10,2013-06-17 14:28:00,
2013-06-17 07:43:00,52.3,51.0,30.07,WNW,294,0.0,1.0,94,0.00,,,0.00,253,weatherlink.com 1.10,2013-06-17 14:43:00,
2013-06-17 07:58:00,54.8,53.0,30.07,NW,315,2.0,2.0,94,0.00,,,0.00,244,weatherlink.com 1.10,2013-06-17 14:58:00,
2013-06-17 08:13:00,57.8,53.0,30.07,NW,317,0.0,3.0,85,0.00,,,0.00,128,weatherlink.com 1.10,2013-06-17 15:13:00,
2013-06-17 08:28:00,61.5,53.0,30.07,NW,317,0.0,2.0,73,0.00,,,0.00,65,weatherlink.com 1.10,2013-06-17 15:28:00,
2013-06-17 08:43:00,64.2,53.0,30.07,ENE,69,2.0,4.0,66,0.00,,,0.00,251,weatherlink.com 1.10,2013-06-17 15:43:00,
2013-06-17 08:58:00,66.4,52.0,30.06,NNE,13,1.0,5.0,61,0.00,,,0.00,260,weatherlink.com 1.10,2013-06-17 15:58:00,
2013-06-17 09:13:00,67.5,53.0,30.06,NE,46,0.0,5.0,60,0.00,,,0.00,267,weatherlink.com 1.10,2013-06-17 16:13:00,
2013-06-17 09:28:00,69.3,54.0,30.06,SE,130,0.0,3.0,58,0.00,,,0.00,179,weatherlink.com 1.10,2013-06-17 16:28:00,
2013-06-17 09:44:00,71.1,54.0,30.06,NNE,25,0.0,4.0,56,0.00,,,0.00,427,weatherlink.com 1.10,2013-06-17 16:44:00,
2013-06-17 09:59:00,72.5,54.0,30.05,South,188,0.0,5.0,53,0.00,,,0.00,543,weatherlink.com 1.10,2013-06-17 16:59:00,
2013-06-17 10:14:00,73.4,55.0,30.05,NNE,19,2.0,6.0,53,0.00,,,0.00,587,weatherlink.com 1.10,2013-06-17 17:14:00,
2013-06-17 10:29:00,73.9,55.0,30.05,South,178,3.0,7.0,51,0.00,,,0.00,610,weatherlink.com 1.10,2013-06-17 17:29:00,
2013-06-17 10:44:00,73.9,53.0,30.05,SSW,196,1.0,9.0,49,0.00,,,0.00,631,weatherlink.com 1.10,2013-06-17 17:44:00,
2013-06-17 10:59:00,75.1,55.0,30.04,SSW,207,4.0,7.0,50,0.00,,,0.00,719,weatherlink.com 1.10,2013-06-17 17:59:00,
2013-06-17 11:14:00,74.5,55.0,30.05,SW,229,5.0,12.0,50,0.00,,,0.00,854,weatherlink.com 1.10,2013-06-17 18:14:00,
2013-06-17 11:29:00,76.4,57.0,30.04,WNW,290,3.0,9.0,51,0.00,,,0.00,879,weatherlink.com 1.10,2013-06-17 18:29:00,
2013-06-17 11:44:00,78.0,56.0,30.04,SSW,202,3.0,9.0,47,0.00,,,0.00,905,weatherlink.com 1.10,2013-06-17 18:44:00,
2013-06-17 11:59:00,77.4,56.0,30.05,SW,215,2.0,13.0,48,0.00,,,0.00,921,weatherlink.com 1.10,2013-06-17 18:59:00,
2013-06-17 12:14:00,77.1,57.0,30.05,SW,220,3.0,14.0,50,0.00,,,0.00,940,weatherlink.com 1.10,2013-06-17 19:14:00,
2013-06-17 12:29:00,76.5,56.0,30.04,NW,309,9.0,13.0,50,0.00,,,0.00,949,weatherlink.com 1.10,2013-06-17 19:29:00,
2013-06-17 12:44:00,76.4,56.0,30.04,SSW,212,6.0,16.0,50,0.00,,,0.00,234,weatherlink.com 1.10,2013-06-17 19:44:00,
2013-06-17 12:59:00,76.5,57.0,30.04,SW,216,12.0,15.0,51,0.00,,,0.00,969,weatherlink.com 1.10,2013-06-17 19:59:00,
2013-06-17 13:14:00,75.8,57.0,30.04,SW,224,6.0,14.0,53,0.00,,,0.00,969,weatherlink.com 1.10,2013-06-17 20:14:00,
2013-06-17 13:29:00,76.0,56.0,30.04,WSW,250,4.0,16.0,51,0.00,,,0.00,965,weatherlink.com 1.10,2013-06-17 20:29:00,
2013-06-17 13:44:00,76.7,58.0,30.04,SSW,213,5.0,15.0,52,0.00,,,0.00,965,weatherlink.com 1.10,2013-06-17 20:44:00,
2013-06-17 13:59:00,76.7,57.0,30.03,SW,219,11.0,17.0,51,0.00,,,0.00,954,weatherlink.com 1.10,2013-06-17 20:59:00,
2013-06-17 14:14:00,75.9,56.0,30.03,WNW,283,13.0,18.0,51,0.00,,,0.00,947,weatherlink.com 1.10,2013-06-17 21:14:00,
2013-06-17 14:29:00,76.9,56.0,30.03,WSW,249,10.0,12.0,49,0.00,,,0.00,930,weatherlink.com 1.10,2013-06-17 21:29:00,
2013-06-17 14:44:00,76.6,57.0,30.03,West,269,10.0,13.0,50,0.00,,,0.00,911,weatherlink.com 1.10,2013-06-17 21:44:00,
2013-06-17 14:59:00,75.8,57.0,30.04,West,260,8.0,12.0,52,0.00,,,0.00,891,weatherlink.com 1.10,2013-06-17 21:59:00,
2013-06-17 15:14:00,75.6,56.0,30.04,West,261,7.0,16.0,51,0.00,,,0.00,867,weatherlink.com 1.10,2013-06-17 22:14:00,
2013-06-17 15:29:00,74.8,55.0,30.03,SSW,207,5.0,17.0,51,0.00,,,0.00,837,weatherlink.com 1.10,2013-06-17 22:29:00,
2013-06-17 15:44:00,75.1,56.0,30.03,SW,230,9.0,16.0,52,0.00,,,0.00,803,weatherlink.com 1.10,2013-06-17 22:44:00,
2013-06-17 15:59:00,73.9,56.0,30.03,WSW,241,11.0,15.0,54,0.00,,,0.00,773,weatherlink.com 1.10,2013-06-17 22:59:00,
2013-06-17 16:14:00,73.9,56.0,30.02,West,276,5.0,15.0,53,0.00,,,0.00,738,weatherlink.com 1.10,2013-06-17 23:14:00,
2013-06-17 16:29:00,72.7,55.0,30.02,SW,228,13.0,18.0,55,0.00,,,0.00,700,weatherlink.com 1.10,2013-06-17 23:29:00,
2013-06-17 16:44:00,73.9,57.0,30.02,WSW,254,4.0,13.0,56,0.00,,,0.00,663,weatherlink.com 1.10,2013-06-17 23:44:00,
2013-06-17 16:59:00,73.3,57.0,30.02,SW,215,11.0,15.0,56,0.00,,,0.00,621,weatherlink.com 1.10,2013-06-17 23:59:00,
2013-06-17 17:14:00,73.7,57.0,30.01,SSW,211,1.0,10.0,56,0.00,,,0.00,580,weatherlink.com 1.10,2013-06-18 00:14:00,
2013-06-17 17:30:00,73.0,57.0,30.01,SW,235,3.0,10.0,57,0.00,,,0.00,534,weatherlink.com 1.10,2013-06-18 00:30:00,
2013-06-17 17:45:00,71.3,56.0,30.00,WSW,254,4.0,12.0,58,0.00,,,0.00,489,weatherlink.com 1.10,2013-06-18 00:45:00,
2013-06-17 18:00:00,69.6,56.0,30.00,SW,228,8.0,14.0,62,0.00,,,0.00,443,weatherlink.com 1.10,2013-06-18 01:00:00,
2013-06-17 18:15:00,69.2,55.0,30.00,West,259,9.0,11.0,62,0.00,,,0.00,397,weatherlink.com 1.10,2013-06-18 01:15:00,
2013-06-17 18:30:00,69.5,56.0,29.99,SW,236,6.0,12.0,62,0.00,,,0.00,348,weatherlink.com 1.10,2013-06-18 01:30:00,
2013-06-17 18:45:00,68.7,55.0,29.99,SW,232,9.0,13.0,62,0.00,,,0.00,301,weatherlink.com 1.10,2013-06-18 01:45:00,
2013-06-17 19:00:00,68.2,55.0,29.99,SW,215,6.0,15.0,63,0.00,,,0.00,251,weatherlink.com 1.10,2013-06-18 02:00:00,
2013-06-17 19:15:00,67.4,54.0,29.99,WSW,243,6.0,12.0,63,0.00,,,0.00,199,weatherlink.com 1.10,2013-06-18 02:15:00,
2013-06-17 19:30:00,66.7,54.0,29.99,SW,234,6.0,16.0,64,0.00,,,0.00,144,weatherlink.com 1.10,2013-06-18 02:30:00,
2013-06-17 19:45:00,65.9,54.0,29.99,SSW,212,2.0,10.0,66,0.00,,,0.00,95,weatherlink.com 1.10,2013-06-18 02:45:00,
2013-06-17 20:00:00,65.0,54.0,29.99,SW,229,5.0,11.0,68,0.00,,,0.00,53,weatherlink.com 1.10,2013-06-18 03:00:00,
2013-06-17 20:15:00,64.3,54.0,29.99,WSW,240,3.0,13.0,69,0.00,,,0.00,23,weatherlink.com 1.10,2013-06-18 03:15:00,
2013-06-17 20:30:00,63.2,53.0,29.99,WSW,242,3.0,10.0,70,0.00,,,0.00,7,weatherlink.com 1.10,2013-06-18 03:30:00,
2013-06-17 20:45:00,62.4,53.0,29.99,SW,234,0.0,7.0,72,0.00,,,0.00,0,weatherlink.com 1.10,2013-06-18 03:45:00,
2013-06-17 21:00:00,62.0,53.0,29.99,SSW,206,4.0,7.0,72,0.00,,,0.00,0,weatherlink.com 1.10,2013-06-18 04:00:00,
2013-06-17 21:15:00,62.0,52.0,29.99,WSW,254,0.0,9.0,71,0.00,,,0.00,0,weatherlink.com 1.10,2013-06-18 04:15:00,
2013-06-17 21:30:00,61.9,52.0,30.00,West,280,3.0,7.0,71,0.00,,,0.00,0,weatherlink.com 1.10,2013-06-18 04:30:00,
2013-06-17 21:45:00,61.6,52.0,30.01,WNW,283,0.0,7.0,71,0.00,,,0.00,0,weatherlink.com 1.10,2013-06-18 04:45:00,
2013-06-17 22:00:00,61.4,52.0,30.01,WSW,239,1.0,10.0,72,0.00,,,0.00,0,weatherlink.com 1.10,2013-06-18 05:00:00,
2013-06-17 22:15:00,60.9,52.0,30.01,WSW,248,0.0,1.0,72,0.00,,,0.00,0,weatherlink.com 1.10,2013-06-18 05:15:00,
2013-06-17 22:30:00,60.1,52.0,30.02,SW,236,1.0,4.0,74,0.00,,,0.00,0,weatherlink.com 1.10,2013-06-18 05:30:00,
2013-06-17 22:45:00,60.0,52.0,30.01,SW,220,0.0,3.0,75,0.00,,,0.00,0,weatherlink.com 1.10,2013-06-18 05:45:00,
2013-06-17 23:00:00,59.5,52.0,30.01,WSW,253,0.0,5.0,76,0.00,,,0.00,0,weatherlink.com 1.10,2013-06-18 06:00:00,
2013-06-17 23:15:00,58.8,52.0,30.01,WSW,253,0.0,3.0,77,0.00,,,0.00,0,weatherlink.com 1.10,2013-06-18 06:15:00,
2013-06-17 23:30:00,57.9,51.0,30.00,WSW,253,0.0,0.0,79,0.00,,,0.00,0,weatherlink.com 1.10,2013-06-18 06:30:00,
2013-06-17 23:45:00,57.2,51.0,30.00,WSW,253,0.0,1.0,81,0.00,,,0.00,0,weatherlink.com 1.10,2013-06-18 06:45:00,